M I D A S
Marine Information and Data Acquisition System
Tripno 1998 of the Zeeleeuw from 2010-11-29 08:01:01 to 2010-11-29 15:53:27
Back to CruiseResearch ActivitiesStationsMapUnderway DataData graphs

EquipmentUnitsComments
TimeDGPSUTC
LatitudeDGPSDM.mWGS84
LongitudeDGPSDM.mWGS84
SpeedMeteo Stationm/sRelative wind speed
DirectionMeteo StationdegRelative wind direction
TemperatureMeteo Stationdeg CelciusAir temperature
PressureMeteo StationPaAtmospheric pressure
HumidityMeteo Station%Relative humidity
Missing or incorrect values are displayed as -999
Metereological data collected by the RV Zeeleeuw from 2010-11-29 07:42:19 to 2010-11-29 16:04:58
                                                                                    Next 1000 lines
Time Latitude Longitude Speed Direction Temperature Pressure Humidity
2010-11-29 07:42:29 51°13.663 2°55.96 -999 323 -2.8 100780 37
2010-11-29 07:42:35 51°13.663 2°55.96 -999 318 -2.8 100780 37
2010-11-29 07:42:40 51°13.663 2°55.96 -999 316 -2.8 100780 37
2010-11-29 07:42:45 51°13.663 2°55.96 -999 321 -2.8 100780 37
2010-11-29 07:42:49 51°13.663 2°55.96 -999 315 -2.8 100780 37
2010-11-29 07:42:54 51°13.663 2°55.96 -999 316 -2.8 100780 37
2010-11-29 07:43:00 51°13.662 2°55.96 -999 327 -2.8 100780 37
2010-11-29 07:43:04 51°13.662 2°55.96 -999 326 -2.8 100780 37
2010-11-29 07:43:09 51°13.662 2°55.96 -999 323 -2.8 100780 37
2010-11-29 07:43:14 51°13.662 2°55.96 -999 323 -2.8 100780 37
2010-11-29 07:43:19 51°13.662 2°55.96 -999 317 -2.8 100780 37
2010-11-29 07:43:25 51°13.662 2°55.96 -999 318 -2.8 100780 37
2010-11-29 07:43:29 51°13.662 2°55.96 -999 321 -2.8 100780 37
2010-11-29 07:43:34 51°13.662 2°55.96 -999 319 -2.8 100780 37
2010-11-29 07:43:40 51°13.662 2°55.96 -999 309 -2.8 100780 37
2010-11-29 07:43:45 51°13.662 2°55.96 -999 329 -2.8 100780 37
2010-11-29 07:43:49 51°13.662 2°55.96 -999 327 -2.8 100780 37
2010-11-29 07:43:54 51°13.662 2°55.959 -999 327 -2.8 100790 37
2010-11-29 07:44:00 51°13.662 2°55.959 -999 327 -2.8 100790 37
2010-11-29 07:44:05 51°13.662 2°55.959 -999 323 -2.8 100790 37
2010-11-29 07:44:09 51°13.662 2°55.959 -999 330 -2.8 100790 37
2010-11-29 07:44:14 51°13.662 2°55.959 -999 322 -2.8 100780 37
2010-11-29 07:44:20 51°13.662 2°55.959 -999 329 -2.8 100780 37
2010-11-29 07:44:24 51°13.662 2°55.959 -999 330 -2.8 100780 37
2010-11-29 07:44:29 51°13.663 2°55.959 -999 325 -2.8 100780 37
2010-11-29 07:44:34 51°13.663 2°55.959 -999 323 -2.8 100780 38
2010-11-29 07:44:40 51°13.662 2°55.959 -999 328 -2.8 100780 38
2010-11-29 07:44:45 51°13.663 2°55.959 -999 328 -2.8 100790 38
2010-11-29 07:44:49 51°13.663 2°55.959 -999 324 -2.8 100790 38
2010-11-29 07:44:55 51°13.663 2°55.959 -999 323 -2.8 100780 36
2010-11-29 07:45:00 51°13.663 2°55.959 -999 325 -2.8 100780 36
2010-11-29 07:45:04 51°13.663 2°55.959 -999 326 -2.8 100790 37
2010-11-29 07:45:10 51°13.663 2°55.959 -999 326 -2.8 100790 37
2010-11-29 07:45:15 51°13.663 2°55.959 -999 328 -2.8 100790 37
2010-11-29 07:45:21 51°13.662 2°55.958 -999 324 -2.8 100790 37
2010-11-29 07:45:25 51°13.662 2°55.958 -999 329 -2.8 100790 37
2010-11-29 07:45:30 51°13.662 2°55.958 -999 330 -2.8 100790 37
2010-11-29 07:45:35 51°13.662 2°55.958 -999 327 -2.8 100790 38
2010-11-29 07:45:40 51°13.662 2°55.959 -999 323 -2.8 100790 38
2010-11-29 07:45:45 51°13.662 2°55.959 -999 328 -2.8 100790 37
2010-11-29 07:45:49 51°13.662 2°55.959 -999 323 -2.8 100790 37
2010-11-29 07:45:54 51°13.662 2°55.959 -999 323 -2.8 100790 38
2010-11-29 07:45:59 51°13.662 2°55.959 -999 322 -2.8 100790 38
2010-11-29 07:46:05 51°13.662 2°55.959 -999 325 -2.8 100790 38
2010-11-29 07:46:09 51°13.662 2°55.959 -999 320 -2.8 100790 38
2010-11-29 07:46:13 51°13.662 2°55.959 -999 321 -2.8 100790 38
2010-11-29 07:46:19 51°13.662 2°55.959 -999 331 -2.8 100790 38
2010-11-29 07:46:25 51°13.662 2°55.959 -999 331 -2.8 100790 38
2010-11-29 07:46:29 51°13.662 2°55.959 -999 330 -2.8 100790 38
2010-11-29 07:46:34 51°13.662 2°55.959 -999 329 -2.8 100790 38
2010-11-29 07:46:39 51°13.661 2°55.959 -999 327 -2.8 100790 38
2010-11-29 07:46:45 51°13.662 2°55.959 -999 329 -2.8 100790 38
2010-11-29 07:46:49 51°13.662 2°55.959 -999 325 -2.8 100790 38
2010-11-29 07:46:54 51°13.662 2°55.959 -999 322 -2.8 100790 38
2010-11-29 07:47:00 51°13.662 2°55.959 -999 323 -2.8 100790 38
2010-11-29 07:47:04 51°13.662 2°55.959 -999 324 -2.8 100790 37
2010-11-29 07:47:09 51°13.662 2°55.959 -999 309 -2.8 100790 37
2010-11-29 07:47:15 51°13.662 2°55.959 -999 318 -2.8 100790 37
2010-11-29 07:47:19 51°13.662 2°55.96 -999 319 -2.8 100790 37
2010-11-29 07:47:25 51°13.662 2°55.96 -999 320 -2.8 100790 38
2010-11-29 07:47:29 51°13.662 2°55.96 -999 309 -2.8 100790 38
2010-11-29 07:47:33 51°13.662 2°55.96 -999 317 -2.7 100790 36
2010-11-29 07:47:40 51°13.662 2°55.96 -999 339 -2.7 100790 36
2010-11-29 07:47:45 51°13.662 2°55.96 -999 337 -2.8 100790 38
2010-11-29 07:47:49 51°13.662 2°55.96 -999 328 -2.8 100790 38
2010-11-29 07:47:54 51°13.662 2°55.96 -999 319 -2.8 100790 38
2010-11-29 07:48:00 51°13.662 2°55.96 -999 309 -2.8 100790 38
2010-11-29 07:48:04 51°13.662 2°55.96 -999 21 -2.8 100790 38
2010-11-29 07:48:08 51°13.662 2°55.959 -999 323 -2.8 100790 38
2010-11-29 07:48:13 51°13.662 2°55.959 -999 21 -2.8 100790 37
2010-11-29 07:48:18 51°13.662 2°55.959 -999 309 -2.8 100790 37
2010-11-29 07:48:25 51°13.662 2°55.959 -999 324 -2.8 100790 37
2010-11-29 07:48:29 51°13.662 2°55.96 -999 325 -2.8 100790 37
2010-11-29 07:48:34 51°13.662 2°55.96 -999 324 -2.8 100790 37
2010-11-29 07:48:39 51°13.662 2°55.96 -999 323 -2.8 100790 37
2010-11-29 07:48:43 51°13.662 2°55.96 -999 322 -2.8 100790 38
2010-11-29 07:48:48 51°13.662 2°55.96 -999 32 -2.8 100790 38
2010-11-29 07:48:53 51°13.662 2°55.96 -999 21 -2.8 100790 37
2010-11-29 07:48:58 51°13.662 2°55.961 -999 323 -2.8 100790 37
2010-11-29 07:49:03 51°13.662 2°55.96 -999 21 -2.8 100790 37
2010-11-29 07:49:09 51°13.663 2°55.96 -999 323 -2.8 100790 37
2010-11-29 07:49:14 51°13.663 2°55.96 -999 327 -2.7 100790 38
2010-11-29 07:49:19 51°13.663 2°55.96 -999 325 -2.7 100790 38
2010-11-29 07:49:24 51°13.663 2°55.96 -999 319 -2.8 100790 38
2010-11-29 07:49:28 51°13.663 2°55.96 -999 309 -2.8 100790 38
2010-11-29 07:49:33 51°13.663 2°55.96 -999 329 -2.8 100790 38
2010-11-29 07:49:39 51°13.663 2°55.96 -999 325 -2.8 100790 38
2010-11-29 07:49:43 51°13.663 2°55.96 -999 327 -2.8 100790 38
2010-11-29 07:49:49 51°13.662 2°55.96 -999 322 -2.8 100790 38
2010-11-29 07:49:54 51°13.663 2°55.96 -999 323 -2.7 100790 38
2010-11-29 07:49:59 51°13.662 2°55.96 -999 325 -2.7 100790 38
2010-11-29 07:50:05 51°13.662 2°55.96 -999 328 -2.7 100790 38
2010-11-29 07:50:09 51°13.662 2°55.96 -999 327 -2.7 100790 38
2010-11-29 07:50:14 51°13.662 2°55.96 -999 324 -2.8 100790 36
2010-11-29 07:50:20 51°13.662 2°55.96 -999 329 -2.8 100790 36
2010-11-29 07:50:24 51°13.662 2°55.96 -999 327 -2.8 100790 38
2010-11-29 07:50:29 51°13.662 2°55.96 -999 322 -2.8 100790 38
2010-11-29 07:50:34 51°13.662 2°55.96 -999 320 -2.7 100790 38
2010-11-29 07:50:39 51°13.662 2°55.96 -999 309 -2.7 100790 38
2010-11-29 07:50:45 51°13.662 2°55.96 -999 323 -2.8 100790 38
2010-11-29 07:50:50 51°13.662 2°55.96 -999 324 -2.8 100790 38
2010-11-29 07:50:55 51°13.662 2°55.96 -999 322 -2.8 100790 38
2010-11-29 07:51:00 51°13.662 2°55.96 -999 324 -2.8 100790 38
2010-11-29 07:51:05 51°13.662 2°55.96 -999 339 -2.8 100790 38
2010-11-29 07:51:09 51°13.662 2°55.96 -999 331 -2.8 100790 38
2010-11-29 07:51:14 51°13.662 2°55.96 -999 329 -2.7 100790 38
2010-11-29 07:51:19 51°13.662 2°55.96 -999 325 -2.7 100790 38
2010-11-29 07:51:24 51°13.662 2°55.96 -999 324 -2.8 100790 38
2010-11-29 07:51:29 51°13.662 2°55.96 -999 309 -2.8 100790 38
2010-11-29 07:51:34 51°13.662 2°55.96 -999 324 -2.8 100790 38
2010-11-29 07:51:39 51°13.662 2°55.96 -999 329 -2.8 100790 38
2010-11-29 07:51:44 51°13.661 2°55.959 -999 326 -2.8 100790 37
2010-11-29 07:51:49 51°13.662 2°55.96 -999 324 -2.8 100790 37
2010-11-29 07:51:54 51°13.662 2°55.96 -999 316 -2.8 100790 37
2010-11-29 07:52:00 51°13.662 2°55.959 -999 309 -2.8 100790 37
2010-11-29 07:52:04 51°13.662 2°55.959 -999 316 -2.7 100790 37
2010-11-29 07:52:09 51°13.662 2°55.96 -999 309 -2.7 100790 37
2010-11-29 07:52:15 51°13.661 2°55.96 -999 315 -2.8 100790 38
2010-11-29 07:52:20 51°13.661 2°55.959 -999 309 -2.8 100790 38
2010-11-29 07:52:25 51°13.661 2°55.96 -999 321 -2.7 100790 38
2010-11-29 07:52:29 51°13.661 2°55.959 -999 309 -2.7 100790 38
2010-11-29 07:52:34 51°13.662 2°55.959 -999 321 -2.8 100790 38
2010-11-29 07:52:39 51°13.661 2°55.959 -999 322 -2.8 100790 38
2010-11-29 07:52:44 51°13.661 2°55.959 -999 323 -2.7 100790 38
2010-11-29 07:52:49 51°13.662 2°55.959 -999 323 -2.7 100790 38
2010-11-29 07:52:55 51°13.662 2°55.959 -999 323 -2.7 100800 36
2010-11-29 07:53:00 51°13.661 2°55.959 -999 322 -2.7 100800 36
2010-11-29 07:53:05 51°13.661 2°55.959 -999 323 -2.8 100800 38
2010-11-29 07:53:09 51°13.662 2°55.959 -999 309 -2.8 100800 38
2010-11-29 07:53:14 51°13.661 2°55.959 -999 322 -2.8 100790 38
2010-11-29 07:53:19 51°13.661 2°55.959 -999 325 -2.8 100790 38
2010-11-29 07:53:24 51°13.661 2°55.959 -999 320 -2.7 100790 38
2010-11-29 07:53:29 51°13.661 2°55.959 -999 309 -2.7 100790 38
2010-11-29 07:53:34 51°13.661 2°55.96 -999 324 -2.8 100800 37
2010-11-29 07:53:39 51°13.661 2°55.96 -999 329 -2.8 100800 37
2010-11-29 07:53:45 51°13.661 2°55.96 -999 327 -2.7 100800 37
2010-11-29 07:53:49 51°13.661 2°55.96 -999 324 -2.7 100800 37
2010-11-29 07:53:55 51°13.661 2°55.96 -999 326 -2.7 100800 38
2010-11-29 07:54:00 51°13.662 2°55.96 -999 329 -2.7 100800 38
2010-11-29 07:54:05 51°13.662 2°55.96 -999 327 -2.7 100800 37
2010-11-29 07:54:09 51°13.662 2°55.96 -999 326 -2.7 100800 37
2010-11-29 07:54:14 51°13.662 2°55.96 -999 329 -2.7 100800 38
2010-11-29 07:54:20 51°13.662 2°55.96 -999 325 -2.7 100800 38
2010-11-29 07:54:24 51°13.662 2°55.96 -999 327 -2.7 100800 38
2010-11-29 07:54:29 51°13.662 2°55.96 -999 333 -2.7 100800 38
2010-11-29 07:54:34 51°13.662 2°55.96 -999 327 -2.7 100800 38
2010-11-29 07:54:40 51°13.661 2°55.96 -999 333 -2.7 100800 38
2010-11-29 07:54:44 51°13.661 2°55.96 -999 331 -2.7 100790 38
2010-11-29 07:54:49 51°13.661 2°55.96 -999 332 -2.7 100790 38
2010-11-29 07:54:54 51°13.661 2°55.959 -999 325 -2.8 100800 38
2010-11-29 07:54:59 51°13.661 2°55.959 -999 331 -2.8 100800 38
2010-11-29 07:55:04 51°13.661 2°55.958 -999 327 -2.7 100800 37
2010-11-29 07:55:09 51°13.661 2°55.957 -999 332 -2.7 100800 37
2010-11-29 07:55:14 51°13.662 2°55.956 -999 337 -2.8 100800 37
2010-11-29 07:55:19 51°13.663 2°55.954 -999 331 -2.8 100800 37
2010-11-29 07:55:24 51°13.664 2°55.951 -999 331 -2.7 100800 37
2010-11-29 07:55:29 51°13.665 2°55.948 -999 346 -2.7 100800 37
2010-11-29 07:55:34 51°13.665 2°55.944 -999 342 -2.8 100800 36
2010-11-29 07:55:40 51°13.666 2°55.94 -999 339 -2.8 100800 36
2010-11-29 07:55:45 51°13.668 2°55.935 -999 338 -2.7 100800 37
2010-11-29 07:55:51 51°13.669 2°55.929 -999 337 -2.7 100800 37
2010-11-29 07:55:57 51°13.671 2°55.922 -999 321 -2.8 100800 38
2010-11-29 07:56:02 51°13.672 2°55.916 -999 324 -2.8 100800 38
2010-11-29 07:56:08 51°13.673 2°55.908 -999 327 -2.7 100800 38
2010-11-29 07:56:13 51°13.675 2°55.902 -999 337 -2.7 100800 38
2010-11-29 07:56:18 51°13.676 2°55.894 -999 359 -2.8 100800 38
2010-11-29 07:56:23 51°13.678 2°55.886 -999 340 -2.8 100800 38
2010-11-29 07:56:28 51°13.679 2°55.878 -999 343 -2.7 100800 38
2010-11-29 07:56:33 51°13.68 2°55.87 -999 349 -2.7 100800 38
2010-11-29 07:56:38 51°13.68 2°55.861 -999 333 -2.7 100800 38
2010-11-29 07:56:43 51°13.683 2°55.852 -999 339 -2.7 100800 38
2010-11-29 07:56:48 51°13.683 2°55.843 -999 323 -2.7 100800 37
2010-11-29 07:56:53 51°13.684 2°55.834 -999 314 -2.7 100800 37
2010-11-29 07:56:58 51°13.685 2°55.826 -999 336 -2.7 100800 38
2010-11-29 07:57:03 51°13.686 2°55.817 -999 322 -2.7 100800 38
2010-11-29 07:57:08 51°13.687 2°55.809 -999 21 -2.7 100800 38
2010-11-29 07:57:13 51°13.688 2°55.8 -999 354 -2.7 100800 38
2010-11-29 07:57:18 51°13.689 2°55.793 -999 347 -2.7 100800 38
2010-11-29 07:57:23 51°13.689 2°55.785 -999 336 -2.7 100800 38
2010-11-29 07:57:28 51°13.689 2°55.777 -999 342 -2.7 100800 38
2010-11-29 07:57:33 51°13.689 2°55.769 -999 346 -2.7 100800 38
2010-11-29 07:57:38 51°13.69 2°55.762 -999 346 -2.7 100800 38
2010-11-29 07:57:43 51°13.691 2°55.755 -999 346 -2.7 100800 38
2010-11-29 07:57:48 51°13.691 2°55.748 -999 355 -2.7 100800 38
2010-11-29 07:57:53 51°13.691 2°55.742 -999 355 -2.7 100800 38
2010-11-29 07:57:57 51°13.692 2°55.737 -999 355 -2.7 100800 38
2010-11-29 07:58:03 51°13.692 2°55.732 0.1 349 -2.7 100800 38
2010-11-29 07:58:07 51°13.692 2°55.73 1 341 -2.7 100800 38
2010-11-29 07:58:13 51°13.692 2°55.729 0.4 343 -2.7 100800 38
2010-11-29 07:58:17 51°13.693 2°55.729 0.4 345 -2.7 100800 36
2010-11-29 07:58:22 51°13.693 2°55.73 1 343 -2.7 100800 36
2010-11-29 07:58:27 51°13.693 2°55.73 1.7 345 -2.7 100800 38
2010-11-29 07:58:32 51°13.695 2°55.731 1.4 345 -2.7 100800 38
2010-11-29 07:58:37 51°13.696 2°55.733 1.5 349 -2.7 100800 37
2010-11-29 07:58:41 51°13.697 2°55.734 1.1 359 -2.7 100800 37
2010-11-29 07:58:46 51°13.698 2°55.734 0.9 -999 -2.7 100800 38
2010-11-29 07:58:51 51°13.7 2°55.735 0.1 360 -2.7 100800 38
2010-11-29 07:58:56 51°13.701 2°55.736 0.1 2 -2.6 100800 37
2010-11-29 07:59:01 51°13.701 2°55.736 -999 15 -2.6 100800 37
2010-11-29 07:59:05 51°13.702 2°55.735 -999 12 -2.6 100790 38
2010-11-29 07:59:10 51°13.702 2°55.735 -999 13 -2.6 100790 38
2010-11-29 07:59:15 51°13.702 2°55.734 -999 12 -2.7 100790 38
2010-11-29 07:59:20 51°13.701 2°55.733 1.4 13 -2.7 100790 38
2010-11-29 07:59:25 51°13.7 2°55.732 1.2 20 -2.7 100800 38
2010-11-29 07:59:29 51°13.699 2°55.731 0.5 26 -2.7 100800 38
2010-11-29 07:59:34 51°13.698 2°55.73 0.2 25 -2.7 100800 38
2010-11-29 07:59:40 51°13.696 2°55.729 0.1 25 -2.7 100800 38
2010-11-29 07:59:45 51°13.695 2°55.728 0.1 27 -2.7 100800 38
2010-11-29 07:59:49 51°13.694 2°55.727 -999 31 -2.7 100800 38
2010-11-29 07:59:54 51°13.694 2°55.727 0.1 32 -2.7 100800 38
2010-11-29 08:00:00 51°13.694 2°55.726 0.2 27 -2.7 100800 38
2010-11-29 08:00:05 51°13.695 2°55.725 0.1 27 -2.6 100800 38
2010-11-29 08:00:10 51°13.697 2°55.724 -999 28 -2.6 100800 38
2010-11-29 08:00:14 51°13.698 2°55.724 -999 27 -2.6 100800 38
2010-11-29 08:00:19 51°13.701 2°55.723 0.1 14 -2.6 100800 38
2010-11-29 08:00:25 51°13.705 2°55.72 0.2 11 -2.6 100800 38
2010-11-29 08:00:29 51°13.708 2°55.719 0.1 13 -2.6 100800 38
2010-11-29 08:00:34 51°13.712 2°55.716 0.1 7 -2.6 100790 38
2010-11-29 08:00:40 51°13.718 2°55.712 -999 9 -2.6 100790 38
2010-11-29 08:00:45 51°13.723 2°55.709 -999 7 -2.6 100790 38
2010-11-29 08:00:49 51°13.727 2°55.706 -999 4 -2.6 100790 38
2010-11-29 08:00:54 51°13.733 2°55.7 -999 1 -2.6 100790 36
2010-11-29 08:01:00 51°13.741 2°55.695 -999 357 -2.6 100790 36
2010-11-29 08:01:04 51°13.746 2°55.691 -999 356 -2.6 100790 38
2010-11-29 08:01:09 51°13.753 2°55.685 -999 359 -2.6 100790 38
2010-11-29 08:01:14 51°13.761 2°55.68 -999 352 -2.6 100790 38
2010-11-29 08:01:20 51°13.77 2°55.672 -999 6 -2.6 100790 38
2010-11-29 08:01:24 51°13.776 2°55.667 -999 1 -2.6 100790 38
2010-11-29 08:01:29 51°13.783 2°55.659 -999 346 -2.6 100790 38
2010-11-29 08:01:34 51°13.791 2°55.652 -999 356 -2.6 100790 38
2010-11-29 08:01:36 51°13.796 2°55.649 -999 355 -2.6 100790 38
2010-11-29 08:01:44 51°13.81 2°55.644 -999 348 -2.6 100790 38
2010-11-29 08:01:44 51°13.81 2°55.644 -999 346 -2.6 100800 38
2010-11-29 08:01:44 51°13.81 2°55.644 -999 356 -2.6 100790 38
2010-11-29 08:01:44 51°13.81 2°55.644 -999 351 -2.6 100800 38
2010-11-29 08:01:44 51°13.81 2°55.644 -999 351 -2.6 100790 38
2010-11-29 08:01:44 51°13.81 2°55.644 -999 347 -2.6 100800 38
2010-11-29 08:01:44 51°13.81 2°55.644 -999 351 -2.6 100800 38
2010-11-29 08:01:44 51°13.81 2°55.644 -999 357 -2.6 100800 38
2010-11-29 08:01:44 51°13.81 2°55.644 -999 342 -2.6 100790 38
2010-11-29 08:01:44 51°13.81 2°55.644 -999 353 -2.6 100800 38
2010-11-29 08:01:44 51°13.81 2°55.644 -999 355 -2.6 100800 38
2010-11-29 08:01:44 51°13.81 2°55.644 -999 359 -2.6 100800 38
2010-11-29 08:01:44 51°13.81 2°55.644 -999 355 -2.6 100800 38
2010-11-29 08:02:49 51°13.81 2°55.644 -999 356 -2.6 100800 38
2010-11-29 08:02:54 51°13.81 2°55.644 -999 353 -2.6 100790 38
2010-11-29 08:03:00 51°13.81 2°55.644 -999 349 -2.6 100790 38
2010-11-29 08:03:05 51°13.81 2°55.644 -999 346 -2.5 100800 38
2010-11-29 08:03:09 51°13.81 2°55.644 -999 350 -2.5 100800 38
2010-11-29 08:03:14 51°13.81 2°55.644 -999 350 -2.6 100790 38
2010-11-29 08:03:20 51°13.81 2°55.644 -999 352 -2.6 100790 38
2010-11-29 08:03:25 51°13.81 2°55.644 -999 353 -2.5 100800 38
2010-11-29 08:03:29 51°13.81 2°55.644 -999 358 -2.5 100800 38
2010-11-29 08:03:35 51°13.81 2°55.644 -999 354 -2.5 100800 37
2010-11-29 08:03:39 51°14.046 2°55.462 -999 -999 -2.5 100800 37
2010-11-29 08:03:44 51°14.058 2°55.453 -999 353 -2.5 100790 38
2010-11-29 08:03:48 51°14.067 2°55.446 -999 352 -2.5 100790 38
2010-11-29 08:03:53 51°14.079 2°55.437 -999 351 -2.5 100800 38
2010-11-29 08:03:59 51°14.09 2°55.429 2.3 355 -2.5 100800 38
2010-11-29 08:04:05 51°14.107 2°55.418 1.4 350 -2.5 100790 38
2010-11-29 08:04:09 51°14.117 2°55.41 1.1 355 -2.5 100790 38
2010-11-29 08:04:14 51°14.129 2°55.401 2 352 -2.5 100800 38
2010-11-29 08:04:19 51°14.141 2°55.391 3.3 358 -2.5 100800 38
2010-11-29 08:04:24 51°14.153 2°55.382 0.5 355 -2.5 100790 36
2010-11-29 08:04:29 51°14.165 2°55.371 0.1 355 -2.5 100790 36
2010-11-29 08:04:34 51°14.177 2°55.361 0.1 354 -2.5 100790 39
2010-11-29 08:04:39 51°14.189 2°55.35 0.4 353 -2.5 100790 39
2010-11-29 08:04:44 51°14.201 2°55.339 0.6 359 -2.5 100790 38
2010-11-29 08:04:49 51°14.213 2°55.328 1.2 356 -2.5 100790 38
2010-11-29 08:04:54 51°14.225 2°55.317 1.3 349 -2.5 100800 39
2010-11-29 08:04:59 51°14.236 2°55.305 1.4 353 -2.5 100800 39
2010-11-29 08:05:04 51°14.248 2°55.294 0.5 359 -2.5 100800 36
2010-11-29 08:05:09 51°14.26 2°55.282 0.7 353 -2.5 100800 36
2010-11-29 08:05:14 51°14.272 2°55.271 1.5 350 -2.5 100800 37
2010-11-29 08:05:20 51°14.287 2°55.258 2.8 356 -2.5 100800 37
2010-11-29 08:05:24 51°14.297 2°55.249 2.9 353 -2.5 100790 36
2010-11-29 08:05:29 51°14.309 2°55.237 2.5 351 -2.5 100790 36
2010-11-29 08:05:34 51°14.321 2°55.225 0.8 348 -2.5 100800 39
2010-11-29 08:05:39 51°14.333 2°55.213 1.9 356 -2.5 100800 39
2010-11-29 08:05:45 51°14.347 2°55.198 0.8 359 -2.5 100800 37
2010-11-29 08:05:49 51°14.357 2°55.188 0.1 2 -2.5 100800 37
2010-11-29 08:05:54 51°14.369 2°55.176 1.9 359 -2.5 100790 37
2010-11-29 08:05:59 51°14.381 2°55.164 1.8 354 -2.5 100790 37
2010-11-29 08:06:04 51°14.393 2°55.152 1.9 359 -2.5 100790 38
2010-11-29 08:06:09 51°14.405 2°55.14 1.9 2 -2.5 100790 38
2010-11-29 08:06:14 51°14.417 2°55.128 1.4 1 -2.5 100790 35
2010-11-29 08:06:19 51°14.429 2°55.116 1.3 2 -2.5 100790 35
2010-11-29 08:06:24 51°14.441 2°55.103 2.5 359 -2.5 100790 37
2010-11-29 08:06:29 51°14.453 2°55.091 1 1 -2.5 100790 37
2010-11-29 08:06:34 51°14.464 2°55.078 0.6 4 -2.5 100790 37
2010-11-29 08:06:39 51°14.476 2°55.065 0.8 358 -2.5 100790 37
2010-11-29 08:06:44 51°14.488 2°55.051 1.5 356 -2.5 100790 38
2010-11-29 08:06:49 51°14.499 2°55.037 0.6 1 -2.5 100790 38
2010-11-29 08:06:54 51°14.511 2°55.024 0.1 357 -2.5 100790 38
2010-11-29 08:06:59 51°14.524 2°55.01 0.1 1 -2.5 100790 38
2010-11-29 08:07:04 51°14.536 2°54.996 -999 2 -2.5 100800 39
2010-11-29 08:07:09 51°14.549 2°54.983 -999 3 -2.5 100800 39
2010-11-29 08:07:14 51°14.561 2°54.97 -999 358 -2.5 100800 38
2010-11-29 08:07:20 51°14.577 2°54.953 -999 4 -2.5 100800 38
2010-11-29 08:07:24 51°14.587 2°54.942 -999 358 -2.4 100790 38
2010-11-29 08:07:29 51°14.6 2°54.929 -999 359 -2.4 100790 38
2010-11-29 08:07:34 51°14.613 2°54.916 -999 3 -2.4 100790 38
2010-11-29 08:07:39 51°14.626 2°54.901 -999 7 -2.4 100790 38
2010-11-29 08:07:44 51°14.639 2°54.887 -999 7 -2.4 100800 38
2010-11-29 08:07:49 51°14.652 2°54.871 -999 357 -2.4 100800 38
2010-11-29 08:07:54 51°14.665 2°54.856 -999 358 -2.4 100790 38
2010-11-29 08:08:00 51°14.68 2°54.835 -999 1 -2.4 100790 38
2010-11-29 08:08:04 51°14.69 2°54.822 -999 1 -2.4 100810 38
2010-11-29 08:08:09 51°14.703 2°54.805 -999 359 -2.4 100810 38
2010-11-29 08:08:14 51°14.717 2°54.789 -999 359 -2.4 100800 38
2010-11-29 08:08:19 51°14.73 2°54.773 -999 2 -2.4 100800 38
2010-11-29 08:08:25 51°14.747 2°54.754 -999 3 -2.3 100790 38
2010-11-29 08:08:29 51°14.758 2°54.74 -999 356 -2.3 100790 38
2010-11-29 08:08:34 51°14.772 2°54.723 -999 1 -2.3 100790 38
2010-11-29 08:08:39 51°14.786 2°54.706 -999 -999 -2.3 100790 38
2010-11-29 08:08:44 51°14.801 2°54.69 -999 2 -2.3 100790 38
2010-11-29 08:08:49 51°14.815 2°54.674 -999 3 -2.3 100790 38
2010-11-29 08:08:54 51°14.83 2°54.658 -999 5 -2.3 100790 37
2010-11-29 08:08:59 51°14.845 2°54.642 -999 1 -2.3 100790 37
2010-11-29 08:09:04 51°14.86 2°54.626 -999 6 -2.3 100780 38
2010-11-29 08:09:09 51°14.875 2°54.611 -999 2 -2.3 100780 38
2010-11-29 08:09:14 51°14.89 2°54.594 -999 1 -2.2 100800 38
2010-11-29 08:09:19 51°14.905 2°54.578 -999 3 -2.2 100800 38
2010-11-29 08:09:24 51°14.92 2°54.562 -999 3 -2.2 100790 38
2010-11-29 08:09:29 51°14.936 2°54.546 -999 -999 -2.2 100790 38
2010-11-29 08:09:34 51°14.951 2°54.53 -999 1 -2.2 100790 38
2010-11-29 08:09:39 51°14.966 2°54.514 -999 -999 -2.2 100790 38
2010-11-29 08:09:44 51°14.982 2°54.499 -999 358 -2.1 100790 38
2010-11-29 08:09:49 51°14.996 2°54.482 -999 359 -2.1 100790 38
2010-11-29 08:09:54 51°15.012 2°54.466 -999 4 -2.2 100790 38
2010-11-29 08:10:00 51°15.03 2°54.446 -999 3 -2.2 100790 38
2010-11-29 08:10:04 51°15.042 2°54.433 -999 1 -2.1 100800 38
2010-11-29 08:10:09 51°15.058 2°54.417 -999 3 -2.1 100800 38
2010-11-29 08:10:14 51°15.073 2°54.4 -999 5 -2.1 100790 38
2010-11-29 08:10:19 51°15.088 2°54.385 -999 1 -2.1 100790 38
2010-11-29 08:10:25 51°15.107 2°54.365 -999 359 -2.1 100790 38
2010-11-29 08:10:29 51°15.119 2°54.352 -999 6 -2.1 100790 38
2010-11-29 08:10:34 51°15.135 2°54.336 -999 9 -2.1 100800 38
2010-11-29 08:10:40 51°15.153 2°54.317 -999 3 -2.1 100800 38
2010-11-29 08:10:44 51°15.165 2°54.304 -999 360 -2 100790 38
2010-11-29 08:10:49 51°15.18 2°54.287 -999 1 -2 100790 38
2010-11-29 08:10:54 51°15.195 2°54.27 -999 1 -2 100790 38
2010-11-29 08:10:59 51°15.21 2°54.253 -999 356 -2 100790 38
2010-11-29 08:11:04 51°15.225 2°54.235 -999 1 -2 100810 38
2010-11-29 08:11:09 51°15.24 2°54.218 -999 359 -2 100810 38
2010-11-29 08:11:14 51°15.254 2°54.2 -999 2 -2 100790 38
2010-11-29 08:11:19 51°15.269 2°54.183 -999 1 -2 100790 38
2010-11-29 08:11:24 51°15.283 2°54.165 -999 -999 -2 100800 38
2010-11-29 08:11:29 51°15.298 2°54.147 -999 9 -2 100800 38
2010-11-29 08:11:34 51°15.313 2°54.13 -999 10 -2 100800 37
2010-11-29 08:11:39 51°15.328 2°54.113 -999 4 -2 100800 37
2010-11-29 08:11:44 51°15.343 2°54.097 -999 2 -2 100800 38
2010-11-29 08:11:49 51°15.357 2°54.08 -999 5 -2 100800 38
2010-11-29 08:11:54 51°15.372 2°54.062 -999 5 -2 100800 38
2010-11-29 08:12:00 51°15.389 2°54.042 -999 6 -2 100800 38
2010-11-29 08:12:04 51°15.401 2°54.029 -999 6 -1.9 100810 39
2010-11-29 08:12:09 51°15.415 2°54.011 -999 11 -1.9 100810 39
2010-11-29 08:12:14 51°15.431 2°53.994 -999 14 -1.9 100810 38
2010-11-29 08:12:19 51°15.444 2°53.977 -999 4 -1.9 100810 38
2010-11-29 08:12:24 51°15.46 2°53.96 -999 6 -1.8 100800 39
2010-11-29 08:12:29 51°15.474 2°53.943 -999 1 -1.8 100800 39
2010-11-29 08:12:34 51°15.489 2°53.925 -999 358 -1.8 100810 39
2010-11-29 08:12:40 51°15.507 2°53.906 -999 3 -1.8 100810 39
2010-11-29 08:12:44 51°15.519 2°53.892 -999 4 -1.8 100800 39
2010-11-29 08:12:49 51°15.534 2°53.875 -999 357 -1.8 100800 39
2010-11-29 08:12:54 51°15.549 2°53.857 -999 -999 -1.7 100810 39
2010-11-29 08:12:59 51°15.564 2°53.841 -999 3 -1.7 100810 39
2010-11-29 08:13:04 51°15.579 2°53.824 -999 2 -1.7 100800 39
2010-11-29 08:13:09 51°15.594 2°53.807 -999 7 -1.7 100800 39
2010-11-29 08:13:14 51°15.609 2°53.79 -999 5 -1.7 100810 39
2010-11-29 08:13:19 51°15.624 2°53.773 -999 4 -1.7 100810 39
2010-11-29 08:13:24 51°15.639 2°53.756 -999 357 -1.7 100790 39
2010-11-29 08:13:29 51°15.655 2°53.739 -999 360 -1.7 100790 39
2010-11-29 08:13:34 51°15.67 2°53.722 -999 1 -1.6 100810 39
2010-11-29 08:13:39 51°15.685 2°53.705 -999 3 -1.6 100810 39
2010-11-29 08:13:44 51°15.7 2°53.688 -999 6 -1.5 100800 39
2010-11-29 08:13:49 51°15.714 2°53.67 -999 2 -1.5 100800 39
2010-11-29 08:13:54 51°15.729 2°53.653 -999 1 -1.5 100790 39
2010-11-29 08:13:59 51°15.744 2°53.636 -999 1 -1.5 100790 39
2010-11-29 08:14:04 51°15.759 2°53.619 -999 4 -1.5 100810 39
2010-11-29 08:14:09 51°15.774 2°53.602 -999 3 -1.5 100810 39
2010-11-29 08:14:14 51°15.79 2°53.586 -999 2 -1.5 100800 38
2010-11-29 08:14:19 51°15.805 2°53.568 -999 6 -1.5 100800 38
2010-11-29 08:14:24 51°15.82 2°53.552 -999 359 -1.6 100800 39
2010-11-29 08:14:29 51°15.835 2°53.535 -999 356 -1.6 100800 39
2010-11-29 08:14:34 51°15.851 2°53.518 -999 354 -1.6 100810 39
2010-11-29 08:14:40 51°15.869 2°53.499 -999 -999 -1.6 100810 39
2010-11-29 08:14:44 51°15.882 2°53.486 -999 359 -1.6 100810 39
2010-11-29 08:14:49 51°15.897 2°53.469 -999 357 -1.6 100810 39
2010-11-29 08:14:54 51°15.913 2°53.455 -999 356 -1.6 100810 39
2010-11-29 08:14:59 51°15.929 2°53.439 -999 359 -1.6 100810 39
2010-11-29 08:15:04 51°15.945 2°53.424 -999 358 -1.6 100800 39
2010-11-29 08:15:09 51°15.96 2°53.41 -999 357 -1.6 100800 39
2010-11-29 08:15:14 51°15.977 2°53.395 -999 1 -1.5 100790 39
2010-11-29 08:15:19 51°15.994 2°53.381 -999 -999 -1.5 100790 39
2010-11-29 08:15:25 51°16.012 2°53.363 -999 4 -1.5 100800 39
2010-11-29 08:15:29 51°16.026 2°53.352 -999 2 -1.5 100800 39
2010-11-29 08:15:34 51°16.042 2°53.337 -999 -999 -1.5 100790 39
2010-11-29 08:15:39 51°16.058 2°53.323 -999 359 -1.5 100790 39
2010-11-29 08:15:44 51°16.075 2°53.309 -999 357 -1.4 100800 39
2010-11-29 08:15:49 51°16.091 2°53.294 -999 1 -1.4 100800 39
2010-11-29 08:15:54 51°16.108 2°53.281 -999 5 -1.4 100800 39
2010-11-29 08:15:59 51°16.124 2°53.267 -999 358 -1.4 100800 39
2010-11-29 08:16:04 51°16.141 2°53.253 -999 357 -1.3 100800 39
2010-11-29 08:16:09 51°16.157 2°53.24 -999 358 -1.3 100800 39
2010-11-29 08:16:14 51°16.174 2°53.227 -999 357 -1.3 100800 39
2010-11-29 08:16:19 51°16.191 2°53.213 -999 2 -1.3 100800 39
2010-11-29 08:16:24 51°16.206 2°53.199 -999 358 -1.3 100800 39
2010-11-29 08:16:29 51°16.223 2°53.186 -999 360 -1.3 100800 39
2010-11-29 08:16:34 51°16.239 2°53.172 -999 1 -1.3 100790 39
2010-11-29 08:16:40 51°16.259 2°53.156 -999 359 -1.3 100790 39
2010-11-29 08:16:44 51°16.272 2°53.145 -999 355 -1.3 100790 39
2010-11-29 08:16:49 51°16.288 2°53.131 -999 1 -1.3 100790 39
2010-11-29 08:16:54 51°16.305 2°53.117 -999 359 -1.2 100800 38
2010-11-29 08:17:00 51°16.324 2°53.1 -999 357 -1.2 100800 38
2010-11-29 08:17:04 51°16.337 2°53.089 -999 3 -1.2 100790 39
2010-11-29 08:17:09 51°16.353 2°53.075 -999 358 -1.2 100790 39
2010-11-29 08:17:14 51°16.369 2°53.061 -999 359 -1.2 100790 39
2010-11-29 08:17:19 51°16.385 2°53.047 -999 1 -1.2 100790 39
2010-11-29 08:17:25 51°16.403 2°53.03 -999 360 -1.2 100800 39
2010-11-29 08:17:29 51°16.416 2°53.019 -999 359 -1.2 100800 39
2010-11-29 08:17:34 51°16.433 2°53.006 -999 357 -1.1 100780 39
2010-11-29 08:17:39 51°16.449 2°52.992 -999 357 -1.1 100780 39
2010-11-29 08:17:44 51°16.466 2°52.978 -999 357 -1.1 100800 39
2010-11-29 08:17:49 51°16.482 2°52.964 -999 357 -1.1 100800 39
2010-11-29 08:17:54 51°16.499 2°52.95 -999 357 -1.1 100800 39
2010-11-29 08:17:59 51°16.514 2°52.936 -999 357 -1.1 100800 39
2010-11-29 08:18:04 51°16.53 2°52.923 -999 355 -1 100790 39
2010-11-29 08:18:09 51°16.547 2°52.909 -999 356 -1 100790 39
2010-11-29 08:18:14 51°16.563 2°52.895 -999 2 -1 100810 39
2010-11-29 08:18:19 51°16.579 2°52.881 -999 360 -1 100810 39
2010-11-29 08:18:24 51°16.595 2°52.867 -999 1 -1 100780 40
2010-11-29 08:18:29 51°16.611 2°52.853 -999 354 -1 100780 40
2010-11-29 08:18:34 51°16.627 2°52.839 -999 352 -1 100790 39
2010-11-29 08:18:39 51°16.644 2°52.826 -999 354 -1 100790 39
2010-11-29 08:18:44 51°16.66 2°52.811 -999 356 -1 100780 39
2010-11-29 08:18:49 51°16.677 2°52.798 -999 355 -1 100780 39
2010-11-29 08:18:54 51°16.693 2°52.783 -999 360 -1 100790 39
2010-11-29 08:19:00 51°16.712 2°52.766 -999 355 -1 100790 39
2010-11-29 08:19:04 51°16.725 2°52.755 -999 358 -1 100790 39
2010-11-29 08:19:09 51°16.742 2°52.741 -999 352 -1 100790 39
2010-11-29 08:19:14 51°16.759 2°52.728 -999 354 -0.9 100780 39
2010-11-29 08:19:19 51°16.775 2°52.714 -999 356 -0.9 100780 39
2010-11-29 08:19:25 51°16.795 2°52.697 -999 359 -0.9 100790 39
2010-11-29 08:19:29 51°16.809 2°52.686 -999 355 -0.9 100790 39
2010-11-29 08:19:34 51°16.826 2°52.672 -999 358 -0.9 100790 38
2010-11-29 08:19:39 51°16.842 2°52.658 -999 359 -0.9 100790 38
2010-11-29 08:19:44 51°16.859 2°52.644 -999 356 -0.9 100780 39
2010-11-29 08:19:49 51°16.875 2°52.629 -999 1 -0.9 100780 39
2010-11-29 08:19:54 51°16.892 2°52.616 -999 4 -0.9 100790 39
2010-11-29 08:19:59 51°16.908 2°52.601 -999 360 -0.9 100790 39
2010-11-29 08:20:04 51°16.924 2°52.587 -999 354 -0.8 100790 40
2010-11-29 08:20:09 51°16.941 2°52.573 -999 354 -0.8 100790 40
2010-11-29 08:20:14 51°16.958 2°52.56 -999 356 -0.8 100790 40
2010-11-29 08:20:19 51°16.974 2°52.546 -999 356 -0.8 100790 40
2010-11-29 08:20:24 51°16.991 2°52.532 -999 356 -0.8 100810 39
2010-11-29 08:20:29 51°17.007 2°52.519 -999 356 -0.8 100810 39
2010-11-29 08:20:34 51°17.023 2°52.505 -999 353 -0.8 100790 40
2010-11-29 08:20:39 51°17.04 2°52.491 -999 356 -0.8 100790 40
2010-11-29 08:20:44 51°17.056 2°52.476 -999 355 -0.8 100790 39
2010-11-29 08:20:49 51°17.073 2°52.462 -999 357 -0.8 100790 39
2010-11-29 08:20:54 51°17.089 2°52.448 -999 356 -0.7 100790 40
2010-11-29 08:20:59 51°17.105 2°52.434 -999 358 -0.7 100790 40
2010-11-29 08:21:04 51°17.121 2°52.42 -999 350 -0.7 100810 40
2010-11-29 08:21:09 51°17.138 2°52.405 -999 354 -0.7 100810 40
2010-11-29 08:21:14 51°17.154 2°52.392 -999 355 -0.6 100800 40
2010-11-29 08:21:20 51°17.174 2°52.375 -999 1 -0.6 100800 40
2010-11-29 08:21:24 51°17.187 2°52.364 -999 2 -0.6 100780 40
2010-11-29 08:21:29 51°17.204 2°52.35 -999 1 -0.6 100780 40
2010-11-29 08:21:34 51°17.22 2°52.336 -999 354 -0.6 100790 40
2010-11-29 08:21:40 51°17.239 2°52.319 -999 354 -0.6 100790 40
2010-11-29 08:21:44 51°17.253 2°52.308 -999 357 -0.6 100780 40
2010-11-29 08:21:49 51°17.27 2°52.294 -999 359 -0.6 100780 40
2010-11-29 08:21:54 51°17.286 2°52.28 -999 1 -0.6 100780 39
2010-11-29 08:21:59 51°17.303 2°52.266 -999 359 -0.6 100780 39
2010-11-29 08:22:05 51°17.322 2°52.249 -999 359 -0.5 100790 40
2010-11-29 08:22:09 51°17.335 2°52.237 -999 360 -0.5 100790 40
2010-11-29 08:22:14 51°17.352 2°52.221 -999 358 -0.5 100790 39
2010-11-29 08:22:19 51°17.368 2°52.206 -999 358 -0.5 100790 39
2010-11-29 08:22:24 51°17.384 2°52.19 -999 358 -0.4 100780 40
2010-11-29 08:22:29 51°17.4 2°52.174 -999 5 -0.4 100780 40
2010-11-29 08:22:34 51°17.416 2°52.158 -999 4 -0.4 100790 40
2010-11-29 08:22:39 51°17.431 2°52.142 -999 -999 -0.4 100790 40
2010-11-29 08:22:44 51°17.447 2°52.126 -999 3 -0.4 100780 40
2010-11-29 08:22:49 51°17.462 2°52.109 -999 4 -0.4 100780 40
2010-11-29 08:22:54 51°17.478 2°52.093 -999 3 -0.4 100790 40
2010-11-29 08:22:59 51°17.493 2°52.076 -999 7 -0.4 100790 40
2010-11-29 08:23:04 51°17.508 2°52.06 -999 6 -0.4 100790 40
2010-11-29 08:23:09 51°17.523 2°52.043 -999 1 -0.4 100790 40
2010-11-29 08:23:14 51°17.539 2°52.027 -999 5 -0.4 100790 39
2010-11-29 08:23:19 51°17.555 2°52.01 -999 2 -0.4 100790 39
2010-11-29 08:23:24 51°17.57 2°51.994 -999 360 -0.3 100790 40
2010-11-29 08:23:29 51°17.586 2°51.978 -999 -999 -0.3 100790 40
2010-11-29 08:23:34 51°17.602 2°51.961 -999 1 -0.3 100780 40
2010-11-29 08:23:40 51°17.62 2°51.942 -999 1 -0.3 100780 40
2010-11-29 08:23:44 51°17.632 2°51.929 -999 1 -0.3 100790 40
2010-11-29 08:23:49 51°17.648 2°51.914 -999 4 -0.3 100790 40
2010-11-29 08:23:54 51°17.664 2°51.898 -999 10 -0.3 100780 40
2010-11-29 08:24:00 51°17.682 2°51.879 -999 1 -0.3 100780 40
2010-11-29 08:24:05 51°17.698 2°51.864 3.5 357 -0.3 100780 40
2010-11-29 08:24:09 51°17.711 2°51.851 6.1 358 -0.3 100780 40
2010-11-29 08:24:14 51°17.727 2°51.836 6 3 -0.3 100780 40
2010-11-29 08:24:19 51°17.743 2°51.819 6 2 -0.3 100780 40
2010-11-29 08:24:24 51°17.759 2°51.804 5.5 -999 -0.2 100790 40
2010-11-29 08:24:29 51°17.775 2°51.788 4.8 6 -0.2 100790 40
2010-11-29 08:24:34 51°17.791 2°51.773 4.7 7 -0.2 100790 40
2010-11-29 08:24:39 51°17.807 2°51.757 6.2 10 -0.2 100790 40
2010-11-29 08:24:44 51°17.823 2°51.742 5.8 8 -0.1 100790 41
2010-11-29 08:24:49 51°17.839 2°51.726 5.1 5 -0.1 100790 41
2010-11-29 08:24:54 51°17.855 2°51.71 4.8 5 -0.1 100780 38
2010-11-29 08:24:59 51°17.871 2°51.694 4.8 4 -0.1 100780 38
2010-11-29 08:25:04 51°17.887 2°51.678 5.5 1 -999 100780 41
2010-11-29 08:25:09 51°17.903 2°51.661 5.4 5 -999 100780 41
2010-11-29 08:25:14 51°17.919 2°51.645 5 6 -0.1 100800 39
2010-11-29 08:25:19 51°17.934 2°51.629 5.1 2 -0.1 100800 39
2010-11-29 08:25:24 51°17.95 2°51.613 5.4 358 -0.1 100780 39
2010-11-29 08:25:29 51°17.967 2°51.596 5.3 5 -0.1 100780 39
2010-11-29 08:25:34 51°17.983 2°51.579 5.6 4 -0.1 100790 38
2010-11-29 08:25:39 51°17.998 2°51.563 5.5 1 -0.1 100790 38
2010-11-29 08:25:44 51°18.013 2°51.547 6.1 6 -0.1 100790 40
2010-11-29 08:25:49 51°18.028 2°51.53 6.6 6 -0.1 100790 40
2010-11-29 08:25:54 51°18.044 2°51.513 5.7 5 -999 100800 39
2010-11-29 08:25:59 51°18.059 2°51.498 5.4 3 -999 100800 39
2010-11-29 08:26:04 51°18.075 2°51.481 5.3 2 -999 100770 39
2010-11-29 08:26:09 51°18.09 2°51.466 6 358 -999 100770 39
2010-11-29 08:26:14 51°18.106 2°51.449 5.9 358 -999 100800 41
2010-11-29 08:26:20 51°18.125 2°51.431 5.2 5 -999 100800 41
2010-11-29 08:26:24 51°18.138 2°51.418 6 7 -999 100770 38
2010-11-29 08:26:29 51°18.154 2°51.403 8.3 1 -999 100770 38
2010-11-29 08:26:34 51°18.169 2°51.386 5.8 1 -999 100780 38
2010-11-29 08:26:39 51°18.185 2°51.37 6.2 6 -999 100780 38
2010-11-29 08:26:44 51°18.2 2°51.354 5.7 6 -999 100790 39
2010-11-29 08:26:49 51°18.215 2°51.336 7.1 7 -999 100790 39
2010-11-29 08:26:54 51°18.23 2°51.321 5.5 3 -999 100790 38
2010-11-29 08:26:59 51°18.246 2°51.304 6.5 7 -999 100790 38
2010-11-29 08:27:05 51°18.265 2°51.285 6.5 7 -999 100790 39
2010-11-29 08:27:09 51°18.277 2°51.272 4.3 8 -999 100790 39
2010-11-29 08:27:14 51°18.294 2°51.256 6.5 10 -999 100780 40
2010-11-29 08:27:19 51°18.309 2°51.239 3.9 3 -999 100780 40
2010-11-29 08:27:24 51°18.325 2°51.224 4.5 358 -999 100780 40
2010-11-29 08:27:29 51°18.341 2°51.207 5.3 359 -999 100780 40
2010-11-29 08:27:34 51°18.357 2°51.191 5.6 359 0.1 100800 37
2010-11-29 08:27:39 51°18.373 2°51.175 4.6 5 0.1 100800 37
2010-11-29 08:27:44 51°18.388 2°51.159 5.1 6 0.1 100790 38
2010-11-29 08:27:49 51°18.403 2°51.142 4.2 8 0.1 100790 38
2010-11-29 08:27:54 51°18.418 2°51.126 4.4 7 0.1 100790 41
2010-11-29 08:27:59 51°18.434 2°51.11 5.2 7 0.1 100790 41
2010-11-29 08:28:04 51°18.45 2°51.093 6.1 6 0.2 100790 41
2010-11-29 08:28:09 51°18.466 2°51.078 5.4 4 0.2 100790 41
2010-11-29 08:28:14 51°18.481 2°51.061 4 3 0.2 100800 40
2010-11-29 08:28:20 51°18.499 2°51.041 5.5 6 0.2 100800 40
2010-11-29 08:28:24 51°18.512 2°51.029 4.8 3 0.2 100790 38
2010-11-29 08:28:29 51°18.527 2°51.012 4.5 8 0.2 100790 38
2010-11-29 08:28:34 51°18.543 2°50.996 4.9 1 0.2 100780 38
2010-11-29 08:28:40 51°18.562 2°50.977 4.1 6 0.2 100780 38
2010-11-29 08:28:44 51°18.575 2°50.964 4.3 3 0.2 100800 40
2010-11-29 08:28:49 51°18.591 2°50.948 4.9 7 0.2 100800 40
2010-11-29 08:28:54 51°18.606 2°50.931 6.3 7 0.3 100790 40
2010-11-29 08:28:59 51°18.622 2°50.915 6.8 10 0.3 100790 40
2010-11-29 08:29:05 51°18.64 2°50.895 4.6 4 0.3 100790 40
2010-11-29 08:29:09 51°18.653 2°50.882 5.6 11 0.3 100790 40
2010-11-29 08:29:14 51°18.668 2°50.865 5.7 12 0.3 100790 40
2010-11-29 08:29:19 51°18.683 2°50.848 5.6 10 0.3 100790 40
2010-11-29 08:29:24 51°18.699 2°50.833 5.9 7 0.3 100800 38
2010-11-29 08:29:29 51°18.715 2°50.816 6.4 13 0.3 100800 38
2010-11-29 08:29:34 51°18.731 2°50.8 5.6 10 0.3 100800 41
2010-11-29 08:29:39 51°18.747 2°50.783 5.6 7 0.3 100800 41
2010-11-29 08:29:44 51°18.762 2°50.767 7.6 11 0.3 100800 38
2010-11-29 08:29:49 51°18.778 2°50.75 7 12 0.3 100800 38
2010-11-29 08:29:54 51°18.794 2°50.735 7.6 14 0.3 100800 38
2010-11-29 08:29:59 51°18.81 2°50.718 6.5 7 0.3 100800 38
2010-11-29 08:30:04 51°18.825 2°50.702 6 7 0.3 100800 39
2010-11-29 08:30:09 51°18.841 2°50.686 5 9 0.3 100800 39
2010-11-29 08:30:14 51°18.856 2°50.669 5 5 0.3 100790 38
2010-11-29 08:30:20 51°18.874 2°50.65 4.9 7 0.3 100790 38
2010-11-29 08:30:24 51°18.886 2°50.636 6.1 3 0.3 100800 40
2010-11-29 08:30:29 51°18.902 2°50.621 3.2 4 0.3 100800 40
2010-11-29 08:30:34 51°18.917 2°50.605 4.9 2 0.3 100780 39
2010-11-29 08:30:40 51°18.935 2°50.585 4.9 1 0.3 100780 39
2010-11-29 08:30:44 51°18.948 2°50.572 5.5 4 0.3 100790 38
2010-11-29 08:30:49 51°18.963 2°50.555 6 356 0.3 100790 38
2010-11-29 08:30:54 51°18.978 2°50.539 6 355 0.3 100790 41
2010-11-29 08:30:59 51°18.994 2°50.522 5.1 356 0.3 100790 41
2010-11-29 08:31:05 51°19.012 2°50.503 5 4 0.3 100800 39
2010-11-29 08:31:09 51°19.025 2°50.49 4.6 358 0.3 100800 39
2010-11-29 08:31:14 51°19.04 2°50.474 3.8 2 0.3 100790 39
2010-11-29 08:31:19 51°19.055 2°50.457 4.3 360 0.3 100790 39
2010-11-29 08:31:24 51°19.071 2°50.441 5 4 0.3 100790 38
2010-11-29 08:31:29 51°19.086 2°50.424 4.4 3 0.3 100790 38
2010-11-29 08:31:34 51°19.101 2°50.408 3.7 4 0.3 100790 40
2010-11-29 08:31:39 51°19.116 2°50.392 4.2 2 0.3 100790 40
2010-11-29 08:31:44 51°19.131 2°50.375 4.9 2 0.3 100800 38
2010-11-29 08:31:49 51°19.147 2°50.359 4 354 0.3 100800 38
2010-11-29 08:31:54 51°19.163 2°50.342 5.4 -999 0.3 100790 38
2010-11-29 08:31:59 51°19.178 2°50.326 5.4 358 0.3 100790 38
2010-11-29 08:32:04 51°19.194 2°50.309 5.3 -999 0.3 100790 39
2010-11-29 08:32:09 51°19.209 2°50.292 6.3 4 0.3 100790 39
2010-11-29 08:32:14 51°19.224 2°50.276 5.8 6 0.3 100790 40
2010-11-29 08:32:19 51°19.239 2°50.258 5.5 2 0.3 100790 40
2010-11-29 08:32:24 51°19.255 2°50.242 6.5 2 0.3 100800 38
2010-11-29 08:32:29 51°19.27 2°50.225 6 2 0.3 100800 38
2010-11-29 08:32:34 51°19.286 2°50.209 6.6 359 0.3 100800 39
2010-11-29 08:32:40 51°19.305 2°50.189 7.4 357 0.3 100800 39
2010-11-29 08:32:44 51°19.317 2°50.176 6.8 359 0.3 100790 40
2010-11-29 08:32:49 51°19.333 2°50.159 7.1 4 0.3 100790 40
2010-11-29 08:32:54 51°19.349 2°50.143 6.7 3 0.3 100790 38
2010-11-29 08:32:59 51°19.365 2°50.126 7.1 6 0.3 100790 38
2010-11-29 08:33:05 51°19.383 2°50.106 5.5 4 0.3 100800 40
2010-11-29 08:33:09 51°19.396 2°50.093 4.5 4 0.3 100800 40
2010-11-29 08:33:14 51°19.41 2°50.076 4.3 5 0.4 100790 40
2010-11-29 08:33:20 51°19.427 2°50.054 4.3 18 0.4 100790 40
2010-11-29 08:33:25 51°19.44 2°50.037 4.8 11 0.4 100790 39
2010-11-29 08:33:31 51°19.459 2°50.019 5.8 10 0.4 100790 39
2010-11-29 08:33:36 51°19.473 2°50.002 5.4 12 0.4 100780 40
2010-11-29 08:33:41 51°19.488 2°49.986 5.2 9 0.4 100780 40
2010-11-29 08:33:45 51°19.501 2°49.972 4.4 5 0.4 100810 38
2010-11-29 08:33:50 51°19.515 2°49.955 6 8 0.4 100810 38
2010-11-29 08:33:55 51°19.531 2°49.939 4.7 6 0.4 100780 41
2010-11-29 08:34:00 51°19.547 2°49.922 5.6 7 0.4 100780 41
2010-11-29 08:34:05 51°19.562 2°49.905 3.5 6 0.4 100790 38
2010-11-29 08:34:09 51°19.575 2°49.892 5.4 6 0.4 100790 38
2010-11-29 08:34:14 51°19.59 2°49.874 6.2 6 0.5 100800 40
2010-11-29 08:34:19 51°19.605 2°49.858 4.3 2 0.5 100800 40
2010-11-29 08:34:24 51°19.62 2°49.84 5.5 4 0.4 100790 38
2010-11-29 08:34:29 51°19.635 2°49.823 5.9 2 0.4 100790 38
2010-11-29 08:34:34 51°19.65 2°49.806 5.6 6 0.5 100800 38
2010-11-29 08:34:40 51°19.668 2°49.786 5.2 6 0.5 100800 38
2010-11-29 08:34:44 51°19.681 2°49.772 5.3 7 0.5 100780 38
2010-11-29 08:34:49 51°19.696 2°49.755 4.9 5 0.5 100780 38
2010-11-29 08:34:54 51°19.711 2°49.737 6.5 3 0.5 100800 40
2010-11-29 08:34:59 51°19.726 2°49.721 5.7 6 0.5 100800 40
2010-11-29 08:35:05 51°19.743 2°49.7 6 6 0.5 100790 38
2010-11-29 08:35:09 51°19.755 2°49.687 7.2 7 0.5 100790 38
2010-11-29 08:35:14 51°19.77 2°49.671 6.2 4 0.6 100790 40
2010-11-29 08:35:19 51°19.785 2°49.654 8.1 9 0.6 100790 40
2010-11-29 08:35:24 51°19.8 2°49.638 6.4 10 0.6 100780 40
2010-11-29 08:35:29 51°19.815 2°49.621 9 8 0.6 100780 40
2010-11-29 08:35:34 51°19.83 2°49.605 4.7 7 0.6 100790 37
2010-11-29 08:35:39 51°19.845 2°49.587 7.8 9 0.6 100790 37
2010-11-29 08:35:45 51°19.863 2°49.568 5.3 7 0.6 100780 40
2010-11-29 08:35:49 51°19.875 2°49.553 6.1 7 0.6 100780 40
2010-11-29 08:35:54 51°19.891 2°49.538 5.7 6 0.6 100780 40
2010-11-29 08:35:59 51°19.906 2°49.522 6.2 5 0.6 100780 40
2010-11-29 08:36:04 51°19.923 2°49.507 7.6 6 0.6 100800 40
2010-11-29 08:36:09 51°19.939 2°49.495 6.8 3 0.6 100800 40
2010-11-29 08:36:14 51°19.955 2°49.481 5.6 2 0.6 100790 38
2010-11-29 08:36:19 51°19.973 2°49.47 5.9 358 0.6 100790 38
2010-11-29 08:36:24 51°19.99 2°49.458 8.3 358 0.6 100790 40
2010-11-29 08:36:29 51°20.007 2°49.447 4.4 2 0.6 100790 40
2010-11-29 08:36:34 51°20.024 2°49.437 6.1 3 0.6 100770 39
2010-11-29 08:36:39 51°20.041 2°49.425 7 5 0.6 100770 39
2010-11-29 08:36:44 51°20.059 2°49.416 7.1 2 0.7 100790 40
2010-11-29 08:36:49 51°20.076 2°49.405 7 3 0.7 100790 40
2010-11-29 08:36:54 51°20.093 2°49.396 5.3 -999 0.7 100780 40
2010-11-29 08:36:59 51°20.11 2°49.386 7.1 3 0.7 100780 40
2010-11-29 08:37:04 51°20.128 2°49.375 5.3 3 0.7 100780 38
2010-11-29 08:37:09 51°20.146 2°49.367 6.3 2 0.7 100780 38
2010-11-29 08:37:14 51°20.163 2°49.357 6.5 1 0.7 100770 40
2010-11-29 08:37:20 51°20.185 2°49.346 6.4 4 0.7 100770 40
2010-11-29 08:37:24 51°20.199 2°49.337 6.1 4 0.6 100800 38
2010-11-29 08:37:29 51°20.216 2°49.328 6.5 -999 0.6 100800 38
2010-11-29 08:37:34 51°20.234 2°49.317 7.6 1 0.7 100770 40
2010-11-29 08:37:39 51°20.252 2°49.307 5.8 3 0.7 100770 40
2010-11-29 08:37:45 51°20.272 2°49.296 7.5 9 0.6 100790 38
2010-11-29 08:37:49 51°20.286 2°49.287 7.2 5 0.6 100790 38
2010-11-29 08:37:54 51°20.303 2°49.277 3.3 358 0.6 100780 39
2010-11-29 08:37:59 51°20.321 2°49.268 6.9 3 0.6 100780 39
2010-11-29 08:38:04 51°20.338 2°49.258 8.9 360 0.6 100790 38
2010-11-29 08:38:09 51°20.356 2°49.25 9.4 1 0.6 100790 38
2010-11-29 08:38:14 51°20.375 2°49.245 7.6 360 0.7 100790 39
2010-11-29 08:38:19 51°20.393 2°49.239 7.1 355 0.7 100790 39
2010-11-29 08:38:24 51°20.411 2°49.236 8.5 357 0.7 100800 40
2010-11-29 08:38:29 51°20.429 2°49.231 8.8 1 0.7 100800 40
2010-11-29 08:38:34 51°20.447 2°49.229 7.6 1 0.7 100780 40
2010-11-29 08:38:39 51°20.466 2°49.229 8.4 357 0.7 100780 40
2010-11-29 08:38:44 51°20.484 2°49.233 8.9 358 0.7 100770 40
2010-11-29 08:38:49 51°20.502 2°49.237 9.7 352 0.7 100770 40
2010-11-29 08:38:54 51°20.521 2°49.241 11.9 356 0.7 100800 38
2010-11-29 08:38:59 51°20.539 2°49.248 10.9 355 0.7 100800 38
2010-11-29 08:39:04 51°20.558 2°49.254 10.4 354 0.7 100770 39
2010-11-29 08:39:09 51°20.576 2°49.261 10 353 0.7 100770 39
2010-11-29 08:39:14 51°20.594 2°49.268 8.4 352 0.8 100780 39
2010-11-29 08:39:19 51°20.612 2°49.277 10.7 351 0.8 100780 39
2010-11-29 08:39:24 51°20.63 2°49.286 9.7 349 0.8 100770 40
2010-11-29 08:39:29 51°20.648 2°49.295 11.9 350 0.8 100770 40
2010-11-29 08:39:34 51°20.666 2°49.304 10.8 355 0.8 100780 40
2010-11-29 08:39:40 51°20.688 2°49.314 11.2 352 0.8 100780 40
2010-11-29 08:39:44 51°20.702 2°49.322 10.4 351 0.7 100780 40
2010-11-29 08:39:49 51°20.72 2°49.332 10.6 351 0.7 100780 40
2010-11-29 08:39:54 51°20.737 2°49.341 10.4 351 0.8 100780 39
2010-11-29 08:39:59 51°20.755 2°49.351 13 355 0.8 100780 39
2010-11-29 08:40:04 51°20.773 2°49.361 12.7 355 0.9 100770 40
2010-11-29 08:40:09 51°20.791 2°49.37 10.4 354 0.9 100770 40
2010-11-29 08:40:14 51°20.808 2°49.38 11.8 355 0.9 100760 39
2010-11-29 08:40:19 51°20.826 2°49.39 9.3 357 0.9 100760 39
2010-11-29 08:40:24 51°20.844 2°49.399 10.7 354 0.8 100770 40
2010-11-29 08:40:29 51°20.861 2°49.409 11.3 351 0.8 100770 40
2010-11-29 08:40:34 51°20.878 2°49.419 8.8 353 0.8 100760 39
2010-11-29 08:40:39 51°20.897 2°49.429 11.5 352 0.8 100760 39
2010-11-29 08:40:44 51°20.914 2°49.439 12.4 352 0.8 100770 39
2010-11-29 08:40:49 51°20.932 2°49.448 11.3 352 0.8 100770 39
2010-11-29 08:40:54 51°20.95 2°49.458 13 350 0.7 100750 38
2010-11-29 08:40:59 51°20.968 2°49.468 12.5 348 0.7 100750 38
2010-11-29 08:41:04 51°20.985 2°49.478 12 349 0.8 100780 39
2010-11-29 08:41:09 51°21.002 2°49.487 13.5 348 0.8 100780 39
2010-11-29 08:41:14 51°21.02 2°49.496 12.4 348 0.8 100770 39
2010-11-29 08:41:19 51°21.038 2°49.506 10.6 351 0.8 100770 39
2010-11-29 08:41:24 51°21.055 2°49.516 10.9 351 0.8 100760 39
2010-11-29 08:41:29 51°21.072 2°49.525 11.4 350 0.8 100760 39
2010-11-29 08:41:34 51°21.091 2°49.535 13 353 0.8 100750 40
2010-11-29 08:41:40 51°21.113 2°49.547 12.2 352 0.8 100750 40
2010-11-29 08:41:44 51°21.127 2°49.554 11 352 0.7 100760 38
2010-11-29 08:41:49 51°21.145 2°49.564 10.1 350 0.7 100760 38
2010-11-29 08:41:54 51°21.162 2°49.575 9.1 348 0.7 100750 39
2010-11-29 08:41:59 51°21.18 2°49.585 11.4 353 0.7 100750 39
2010-11-29 08:42:05 51°21.201 2°49.596 9.4 351 0.7 100760 39
2010-11-29 08:42:09 51°21.216 2°49.604 8.9 352 0.7 100760 39
2010-11-29 08:42:14 51°21.234 2°49.614 10.4 352 0.7 100750 39
2010-11-29 08:42:19 51°21.252 2°49.624 12.1 353 0.7 100750 39
2010-11-29 08:42:24 51°21.27 2°49.632 11.6 354 0.7 100770 39
2010-11-29 08:42:29 51°21.288 2°49.64 10.4 355 0.7 100770 39
2010-11-29 08:42:34 51°21.307 2°49.648 10 354 0.7 100780 40
2010-11-29 08:42:39 51°21.325 2°49.655 10.2 351 0.7 100780 40
2010-11-29 08:42:44 51°21.343 2°49.66 9.6 355 0.7 100770 39
2010-11-29 08:42:49 51°21.362 2°49.666 10.3 351 0.7 100770 39
2010-11-29 08:42:54 51°21.38 2°49.671 8.5 352 0.7 100770 39
2010-11-29 08:42:59 51°21.399 2°49.677 7.3 353 0.7 100770 39
2010-11-29 08:43:04 51°21.418 2°49.68 10.3 352 0.7 100760 38
2010-11-29 08:43:09 51°21.437 2°49.684 12 352 0.7 100760 38
2010-11-29 08:43:14 51°21.456 2°49.686 11.8 351 0.7 100770 39
2010-11-29 08:43:19 51°21.475 2°49.69 11.6 353 0.7 100770 39
2010-11-29 08:43:24 51°21.494 2°49.691 10.6 354 0.8 100780 40
2010-11-29 08:43:29 51°21.513 2°49.694 8.5 354 0.8 100780 40
2010-11-29 08:43:34 51°21.532 2°49.693 9.6 355 0.8 100760 38
2010-11-29 08:43:39 51°21.551 2°49.694 7.5 359 0.8 100760 38
2010-11-29 08:43:44 51°21.57 2°49.692 9.1 -999 0.8 100770 40
2010-11-29 08:43:49 51°21.589 2°49.693 7.2 2 0.8 100770 40
2010-11-29 08:43:54 51°21.608 2°49.69 7 2 0.8 100770 39
2010-11-29 08:43:59 51°21.627 2°49.689 7.1 1 0.8 100770 39
2010-11-29 08:44:04 51°21.645 2°49.686 7 359 0.7 100780 39
2010-11-29 08:44:09 51°21.665 2°49.683 7.9 5 0.7 100780 39
2010-11-29 08:44:14 51°21.684 2°49.679 6 360 0.7 100770 40
2010-11-29 08:44:20 51°21.706 2°49.674 7.5 358 0.7 100770 40
2010-11-29 08:44:24 51°21.721 2°49.669 5.4 3 0.7 100780 40
2010-11-29 08:44:29 51°21.74 2°49.664 6.7 360 0.7 100780 40
2010-11-29 08:44:34 51°21.759 2°49.657 5.7 2 0.7 100800 40
2010-11-29 08:44:39 51°21.776 2°49.647 7.1 5 0.7 100800 40
2010-11-29 08:44:44 51°21.794 2°49.639 6.6 7 0.7 100790 38
2010-11-29 08:44:49 51°21.812 2°49.628 7.2 3 0.7 100790 38
2010-11-29 08:44:54 51°21.83 2°49.617 6.4 359 0.7 100790 40
2010-11-29 08:44:59 51°21.846 2°49.603 7.4 8 0.7 100790 40
2010-11-29 08:45:04 51°21.863 2°49.591 6.8 9 0.7 100800 38
2010-11-29 08:45:09 51°21.879 2°49.575 6 9 0.7 100800 38
2010-11-29 08:45:14 51°21.894 2°49.559 6.1 11 0.8 100800 38
2010-11-29 08:45:19 51°21.909 2°49.541 5.2 9 0.8 100800 38
2010-11-29 08:45:24 51°21.924 2°49.523 4 13 0.8 100790 39
2010-11-29 08:45:29 51°21.939 2°49.505 4.5 9 0.8 100790 39
2010-11-29 08:45:34 51°21.952 2°49.483 5.1 10 0.8 100800 40
2010-11-29 08:45:39 51°21.964 2°49.462 3.2 12 0.8 100800 40
2010-11-29 08:45:44 51°21.976 2°49.44 4.2 9 0.8 100800 38
2010-11-29 08:45:49 51°21.989 2°49.419 3.5 17 0.8 100800 38
2010-11-29 08:45:54 51°22 2°49.396 4.3 10 0.8 100810 39
2010-11-29 08:45:59 51°22.012 2°49.374 2 14 0.8 100810 39
2010-11-29 08:46:04 51°22.022 2°49.349 4 18 0.8 100800 38
2010-11-29 08:46:09 51°22.035 2°49.328 1.6 6 0.8 100800 38
2010-11-29 08:46:14 51°22.045 2°49.304 4.9 5 0.8 100810 40
2010-11-29 08:46:20 51°22.058 2°49.276 4.3 16 0.8 100810 40
2010-11-29 08:46:24 51°22.066 2°49.257 4.7 21 0.8 100810 39
2010-11-29 08:46:29 51°22.078 2°49.234 2.5 14 0.8 100810 39
2010-11-29 08:46:34 51°22.089 2°49.21 4.2 17 0.8 100800 39
2010-11-29 08:46:40 51°22.102 2°49.182 2.7 14 0.8 100800 39
2010-11-29 08:46:44 51°22.11 2°49.163 4.7 16 0.8 100810 41
2010-11-29 08:46:49 51°22.123 2°49.141 4.1 21 0.8 100810 41
2010-11-29 08:46:54 51°22.133 2°49.117 4.7 18 0.8 100820 39
2010-11-29 08:46:59 51°22.145 2°49.096 4.9 13 0.8 100820 39
2010-11-29 08:47:05 51°22.159 2°49.068 5.3 16 0.8 100810 41
2010-11-29 08:47:09 51°22.169 2°49.051 4.6 21 0.8 100810 41
2010-11-29 08:47:14 51°22.181 2°49.028 4.1 15 0.8 100810 40
2010-11-29 08:47:19 51°22.193 2°49.007 4 20 0.8 100810 40
2010-11-29 08:47:24 51°22.205 2°48.985 4.3 23 0.9 100800 39
2010-11-29 08:47:29 51°22.217 2°48.963 4.5 13 0.9 100800 39
2010-11-29 08:47:34 51°22.229 2°48.942 4.8 5 0.9 100800 39
2010-11-29 08:47:39 51°22.241 2°48.919 5.8 16 0.9 100800 39
2010-11-29 08:47:44 51°22.254 2°48.898 4.1 11 0.9 100810 40
2010-11-29 08:47:49 51°22.266 2°48.877 4.5 17 0.9 100810 40
2010-11-29 08:47:54 51°22.277 2°48.854 3.4 13 0.9 100810 41
2010-11-29 08:47:59 51°22.29 2°48.833 4.5 16 0.9 100810 41
2010-11-29 08:48:04 51°22.301 2°48.81 3.3 13 0.9 100810 41
2010-11-29 08:48:09 51°22.314 2°48.788 5 21 0.9 100810 41
2010-11-29 08:48:14 51°22.325 2°48.766 5.5 16 0.9 100810 41
2010-11-29 08:48:19 51°22.337 2°48.744 6 14 0.9 100810 41
2010-11-29 08:48:24 51°22.349 2°48.722 5.2 21 0.8 100830 38
2010-11-29 08:48:29 51°22.361 2°48.701 4.5 16 0.8 100830 38
2010-11-29 08:48:34 51°22.372 2°48.678 4.4 15 0.9 100810 38
2010-11-29 08:48:40 51°22.387 2°48.652 4 17 0.9 100810 38
2010-11-29 08:48:44 51°22.396 2°48.634 3.7 16 0.9 100810 41
2010-11-29 08:48:49 51°22.409 2°48.612 4.5 18 0.9 100810 41
2010-11-29 08:48:54 51°22.42 2°48.59 4.8 19 0.8 100810 37
2010-11-29 08:48:59 51°22.432 2°48.568 5.3 14 0.8 100810 37
2010-11-29 08:49:05 51°22.447 2°48.542 4.8 16 0.8 100810 38
2010-11-29 08:49:09 51°22.456 2°48.525 5.2 17 0.8 100810 38
2010-11-29 08:49:14 51°22.468 2°48.503 5.1 16 0.8 100810 38
2010-11-29 08:49:19 51°22.48 2°48.48 4.7 19 0.8 100810 38
2010-11-29 08:49:25 51°22.495 2°48.455 4.7 19 0.8 100810 38
2010-11-29 08:49:29 51°22.504 2°48.436 4.4 17 0.8 100810 38
2010-11-29 08:49:34 51°22.516 2°48.413 4.2 16 0.8 100810 39
2010-11-29 08:49:39 51°22.529 2°48.393 4.8 18 0.8 100810 39
2010-11-29 08:49:44 51°22.54 2°48.369 6 19 0.8 100810 40
2010-11-29 08:49:49 51°22.552 2°48.347 4.9 21 0.8 100810 40
2010-11-29 08:49:54 51°22.564 2°48.324 7.3 21 0.8 100810 40
2010-11-29 08:49:59 51°22.576 2°48.302 5.3 18 0.8 100810 40
2010-11-29 08:50:04 51°22.587 2°48.279 4.3 11 0.9 100810 39
2010-11-29 08:50:09 51°22.599 2°48.257 5.9 18 0.9 100810 39
2010-11-29 08:50:14 51°22.611 2°48.234 6.4 20 0.9 100810 38
2010-11-29 08:50:19 51°22.623 2°48.213 5.7 19 0.9 100810 38
2010-11-29 08:50:24 51°22.636 2°48.191 5 18 0.9 100800 38
2010-11-29 08:50:29 51°22.649 2°48.17 5 16 0.9 100800 38
2010-11-29 08:50:34 51°22.662 2°48.148 4.9 17 0.9 100820 40
2010-11-29 08:50:39 51°22.675 2°48.127 3.2 15 0.9 100820 40
2010-11-29 08:50:44 51°22.686 2°48.105 5.2 17 0.9 100800 40
2010-11-29 08:50:49 51°22.7 2°48.084 7.1 17 0.9 100800 40
2010-11-29 08:50:54 51°22.712 2°48.063 4.3 15 0.9 100820 38
2010-11-29 08:50:59 51°22.725 2°48.042 7.2 12 0.9 100820 38
2010-11-29 08:51:05 51°22.741 2°48.016 5.7 12 0.9 100800 40
2010-11-29 08:51:09 51°22.751 2°47.999 7.2 16 0.9 100800 40
2010-11-29 08:51:14 51°22.765 2°47.979 6.3 13 0.9 100810 41
2010-11-29 08:51:19 51°22.778 2°47.956 5.9 14 0.9 100810 41
2010-11-29 08:51:25 51°22.794 2°47.931 6.9 10 0.9 100810 39
2010-11-29 08:51:29 51°22.804 2°47.913 5.1 16 0.9 100810 39
2010-11-29 08:51:34 51°22.816 2°47.892 6.4 13 0.9 100810 38
2010-11-29 08:51:39 51°22.83 2°47.871 6.4 17 0.9 100810 38
2010-11-29 08:51:44 51°22.842 2°47.849 4.2 18 0.9 100800 39
2010-11-29 08:51:49 51°22.855 2°47.827 5.6 10 0.9 100800 39
2010-11-29 08:51:54 51°22.869 2°47.806 5.6 10 0.9 100800 41
2010-11-29 08:51:59 51°22.88 2°47.785 5.3 14 0.9 100800 41
2010-11-29 08:52:04 51°22.892 2°47.762 4.8 10 0.9 100800 39
2010-11-29 08:52:09 51°22.905 2°47.74 4.9 10 0.9 100800 39
2010-11-29 08:52:14 51°22.917 2°47.718 3.6 5 0.9 100810 38
2010-11-29 08:52:19 51°22.928 2°47.695 4.6 10 0.9 100810 38
2010-11-29 08:52:24 51°22.941 2°47.673 6.4 14 0.9 100810 41
2010-11-29 08:52:29 51°22.953 2°47.652 5.1 16 0.9 100810 41
2010-11-29 08:52:34 51°22.964 2°47.629 4.3 16 0.9 100810 41
2010-11-29 08:52:39 51°22.976 2°47.607 4.1 19 0.9 100810 41
2010-11-29 08:52:44 51°22.989 2°47.585 2.6 19 1 100800 39
2010-11-29 08:52:49 51°23.001 2°47.562 4.5 10 1 100800 39
2010-11-29 08:52:54 51°23.013 2°47.54 3.8 9 1 100800 39
2010-11-29 08:52:59 51°23.024 2°47.517 4.6 18 1 100800 39
2010-11-29 08:53:04 51°23.037 2°47.495 4.1 17 1 100810 38
2010-11-29 08:53:09 51°23.048 2°47.472 4 13 1 100810 38
2010-11-29 08:53:14 51°23.061 2°47.451 3 15 1 100810 40
2010-11-29 08:53:19 51°23.072 2°47.428 3.4 20 1 100810 40
2010-11-29 08:53:25 51°23.087 2°47.401 4.9 21 1 100810 38
2010-11-29 08:53:29 51°23.096 2°47.381 2.2 20 1 100810 38
2010-11-29 08:53:34 51°23.108 2°47.359 3.3 25 1 100810 38
2010-11-29 08:53:39 51°23.12 2°47.338 3.1 23 1 100810 38
2010-11-29 08:53:45 51°23.133 2°47.31 1.6 20 1 100810 39
2010-11-29 08:53:49 51°23.142 2°47.291 4.1 9 1 100810 39
2010-11-29 08:53:54 51°23.156 2°47.27 4.3 12 1 100800 38
2010-11-29 08:53:59 51°23.167 2°47.246 3.9 5 1 100800 38
2010-11-29 08:54:05 51°23.181 2°47.22 6.7 14 1 100800 38
2010-11-29 08:54:09 51°23.19 2°47.2 3.3 6 1 100800 38
2010-11-29 08:54:14 51°23.202 2°47.178 4.8 12 1 100810 40
2010-11-29 08:54:19 51°23.215 2°47.156 3.5 13 1 100810 40
2010-11-29 08:54:24 51°23.225 2°47.132 4.9 9 1.1 100810 38
2010-11-29 08:54:29 51°23.235 2°47.109 8.1 12 1.1 100810 38
2010-11-29 08:54:34 51°23.248 2°47.087 4.5 13 1.1 100800 39
2010-11-29 08:54:39 51°23.258 2°47.062 4.4 12 1.1 100800 39
2010-11-29 08:54:44 51°23.27 2°47.039 5.8 11 1.1 100810 40
2010-11-29 08:54:49 51°23.282 2°47.017 4.9 14 1.1 100810 40
2010-11-29 08:54:54 51°23.294 2°46.993 6.4 16 1.1 100800 39
2010-11-29 08:54:59 51°23.306 2°46.971 5.1 7 1.1 100800 39
2010-11-29 08:55:04 51°23.318 2°46.947 4 8 1.1 100830 39
2010-11-29 08:55:09 51°23.33 2°46.925 4 14 1.1 100830 39
2010-11-29 08:55:14 51°23.343 2°46.904 4.6 15 1.1 100820 41
2010-11-29 08:55:19 51°23.354 2°46.88 4.4 17 1.1 100820 41
2010-11-29 08:55:24 51°23.367 2°46.858 5 15 1.1 100800 39
2010-11-29 08:55:29 51°23.379 2°46.835 4.1 5 1.1 100800 39
2010-11-29 08:55:34 51°23.391 2°46.812 5.3 10 1.1 100790 40
2010-11-29 08:55:39 51°23.403 2°46.79 5 7 1.1 100790 40
2010-11-29 08:55:45 51°23.418 2°46.762 4.4 8 1 100800 41
2010-11-29 08:55:49 51°23.427 2°46.744 5.3 15 1 100800 41
2010-11-29 08:55:54 51°23.44 2°46.723 4.7 12 1.1 100810 39
2010-11-29 08:55:59 51°23.451 2°46.699 5 12 1.1 100810 39
2010-11-29 08:56:05 51°23.465 2°46.672 3.8 14 1.1 100800 39
2010-11-29 08:56:09 51°23.475 2°46.653 3.6 14 1.1 100800 39
2010-11-29 08:56:14 51°23.486 2°46.629 4.8 12 1 100800 39
2010-11-29 08:56:19 51°23.497 2°46.607 5.2 15 1 100800 39
2010-11-29 08:56:25 51°23.511 2°46.578 3.4 16 1 100810 41
2010-11-29 08:56:29 51°23.52 2°46.56 5.2 13 1 100810 41
2010-11-29 08:56:34 51°23.531 2°46.536 4.2 15 1.1 100820 39
2010-11-29 08:56:39 51°23.543 2°46.514 3.2 17 1.1 100820 39
2010-11-29 08:56:44 51°23.553 2°46.489 3.2 17 1.1 100800 39
2010-11-29 08:56:49 51°23.566 2°46.466 4.5 11 1.1 100800 39
2010-11-29 08:56:54 51°23.576 2°46.441 2.2 9 1.1 100810 38
2010-11-29 08:56:59 51°23.588 2°46.419 6.6 7 1.1 100810 38
2010-11-29 08:57:04 51°23.599 2°46.395 4.4 4 1.1 100810 41
2010-11-29 08:57:09 51°23.61 2°46.371 5.9 12 1.1 100810 41
2010-11-29 08:57:14 51°23.622 2°46.347 5.1 10 1.1 100820 41
2010-11-29 08:57:19 51°23.631 2°46.322 4.5 7 1.1 100820 41
2010-11-29 08:57:24 51°23.643 2°46.3 6.5 9 1.2 100810 40
2010-11-29 08:57:29 51°23.654 2°46.276 3.9 17 1.2 100810 40
2010-11-29 08:57:34 51°23.664 2°46.251 4.3 17 1.2 100810 41
2010-11-29 08:57:39 51°23.677 2°46.229 3.9 4 1.2 100810 41
2010-11-29 08:57:44 51°23.687 2°46.205 4 7 1.2 100800 39
2010-11-29 08:57:49 51°23.699 2°46.181 6.3 8 1.2 100800 39
2010-11-29 08:57:54 51°23.709 2°46.157 6.5 11 1.2 100800 41
2010-11-29 08:57:59 51°23.72 2°46.133 5.5 14 1.2 100800 41
2010-11-29 08:58:05 51°23.733 2°46.104 5.6 11 1.2 100800 41
2010-11-29 08:58:09 51°23.743 2°46.086 6.9 12 1.2 100800 41
2010-11-29 08:58:14 51°23.754 2°46.063 5.8 12 1.2 100800 41
2010-11-29 08:58:19 51°23.765 2°46.038 5.9 18 1.2 100800 41
2010-11-29 08:58:25 51°23.779 2°46.011 4.3 20 1.2 100800 41
2010-11-29 08:58:29 51°23.787 2°45.99 3.4 14 1.2 100800 41
2010-11-29 08:58:34 51°23.799 2°45.968 4.6 13 1.2 100800 40
2010-11-29 08:58:39 51°23.81 2°45.943 4.2 17 1.2 100800 40
2010-11-29 08:58:44 51°23.821 2°45.92 2.2 12 1.2 100800 41
2010-11-29 08:58:49 51°23.832 2°45.896 5.1 21 1.2 100800 41
2010-11-29 08:58:54 51°23.843 2°45.872 1.6 20 1.2 100810 38
2010-11-29 08:58:59 51°23.852 2°45.847 3.7 7 1.2 100810 38
2010-11-29 08:59:04 51°23.863 2°45.823 4.6 359 1.2 100800 40
2010-11-29 08:59:09 51°23.873 2°45.798 3.4 11 1.2 100800 40
2010-11-29 08:59:14 51°23.884 2°45.775 5.8 8 1.2 100810 38
2010-11-29 08:59:19 51°23.894 2°45.75 4.4 7 1.2 100810 38
2010-11-29 08:59:24 51°23.906 2°45.728 5.9 9 1.2 100810 41
2010-11-29 08:59:29 51°23.916 2°45.704 6.6 15 1.2 100810 41
2010-11-29 08:59:34 51°23.928 2°45.681 5 9 1.2 100810 38
2010-11-29 08:59:39 51°23.939 2°45.657 6.4 12 1.2 100810 38
2010-11-29 08:59:44 51°23.951 2°45.634 5 16 1.3 100800 41
2010-11-29 08:59:49 51°23.961 2°45.61 4.5 19 1.3 100800 41
2010-11-29 08:59:54 51°23.972 2°45.586 3.6 17 1.3 100800 39
2010-11-29 08:59:59 51°23.984 2°45.562 5 18 1.3 100800 39
2010-11-29 09:00:05 51°23.997 2°45.533 2.4 15 1.3 100810 39
2010-11-29 09:00:09 51°24.006 2°45.514 4.8 17 1.3 100810 39
2010-11-29 09:00:14 51°24.018 2°45.49 2.9 20 1.2 100800 41
2010-11-29 09:00:19 51°24.028 2°45.467 4.3 16 1.2 100800 41
2010-11-29 09:00:25 51°24.042 2°45.439 3.2 18 1.2 100810 39
2010-11-29 09:00:29 51°24.05 2°45.42 3.5 10 1.2 100810 39
2010-11-29 09:00:34 51°24.062 2°45.397 4.4 16 1.2 100830 41
2010-11-29 09:00:39 51°24.072 2°45.372 2.3 14 1.2 100830 41
2010-11-29 09:00:45 51°24.085 2°45.345 5.6 15 1.2 100800 39
2010-11-29 09:00:49 51°24.094 2°45.326 3.4 13 1.2 100800 39
2010-11-29 09:00:54 51°24.103 2°45.301 4.7 18 1.3 100810 41
2010-11-29 09:00:59 51°24.115 2°45.278 4 20 1.3 100810 41
2010-11-29 09:01:04 51°24.124 2°45.253 5.6 16 1.3 100800 41
2010-11-29 09:01:09 51°24.136 2°45.23 3.1 22 1.3 100800 41
2010-11-29 09:01:14 51°24.146 2°45.204 3.4 20 1.3 100820 39
2010-11-29 09:01:19 51°24.157 2°45.181 0.5 18 1.3 100820 39
2010-11-29 09:01:24 51°24.167 2°45.156 1.5 23 1.3 100810 39
2010-11-29 09:01:29 51°24.177 2°45.131 3.6 13 1.3 100810 39
2010-11-29 09:01:34 51°24.188 2°45.107 4.3 4 1.3 100800 41
2010-11-29 09:01:39 51°24.198 2°45.082 5.6 10 1.3 100800 41
2010-11-29 09:01:44 51°24.209 2°45.057 4.7 13 1.4 100810 42
2010-11-29 09:01:49 51°24.218 2°45.031 3.5 9 1.4 100810 42
2010-11-29 09:01:54 51°24.228 2°45.006 1.9 10 1.4 100810 39
2010-11-29 09:01:59 51°24.236 2°44.98 2.8 14 1.4 100810 39
2010-11-29 09:02:04 51°24.246 2°44.955 5.6 14 1.4 100810 42
2010-11-29 09:02:09 51°24.254 2°44.928 1.7 9 1.4 100810 42
2010-11-29 09:02:14 51°24.263 2°44.904 5 17 1.4 100800 39
2010-11-29 09:02:19 51°24.272 2°44.88 2.7 14 1.4 100800 39
2010-11-29 09:02:25 51°24.282 2°44.85 4.4 12 1.4 100820 41
2010-11-29 09:02:29 51°24.288 2°44.831 2.4 8 1.4 100820 41
2010-11-29 09:02:34 51°24.297 2°44.808 3.7 9 1.4 100810 40
2010-11-29 09:02:39 51°24.305 2°44.785 1.9 14 1.4 100810 40
2010-11-29 09:02:45 51°24.314 2°44.757 2.1 15 1.4 100820 40
2010-11-29 09:02:49 51°24.32 2°44.74 1.9 21 1.4 100820 40
2010-11-29 09:02:54 51°24.327 2°44.718 2.2 22 1.4 100800 39
2010-11-29 09:02:59 51°24.334 2°44.699 2.2 28 1.4 100800 39
2010-11-29 09:03:04 51°24.34 2°44.678 4.4 22 1.3 100810 40
2010-11-29 09:03:09 51°24.347 2°44.66 5.4 31 1.3 100810 40
2010-11-29 09:03:14 51°24.353 2°44.641 1.1 30 1.3 100810 41
2010-11-29 09:03:19 51°24.36 2°44.624 3.7 32 1.3 100810 41
2010-11-29 09:03:24 51°24.365 2°44.606 2.5 29 1.3 100830 41
2010-11-29 09:03:29 51°24.371 2°44.589 4.5 30 1.3 100830 41
2010-11-29 09:03:34 51°24.377 2°44.573 4.5 32 1.3 100820 41
2010-11-29 09:03:39 51°24.383 2°44.557 4.5 31 1.3 100820 41
2010-11-29 09:03:44 51°24.389 2°44.54 4 29 1.4 100820 39
2010-11-29 09:03:49 51°24.394 2°44.524 4 32 1.4 100820 39
2010-11-29 09:03:54 51°24.4 2°44.509 2.7 34 1.3 100810 41
2010-11-29 09:03:59 51°24.405 2°44.493 3.6 36 1.3 100810 41
2010-11-29 09:04:05 51°24.411 2°44.474 4 34 1.3 100810 40
2010-11-29 09:04:09 51°24.415 2°44.462 4.3 41 1.3 100810 40
2010-11-29 09:04:14 51°24.42 2°44.447 3.8 37 1.4 100810 41
2010-11-29 09:04:20 51°24.426 2°44.429 4.1 36 1.4 100810 41
2010-11-29 09:04:24 51°24.431 2°44.417 4.4 35 1.4 100820 41
2010-11-29 09:04:29 51°24.436 2°44.402 4 38 1.4 100820 41
2010-11-29 09:04:34 51°24.442 2°44.388 3.3 37 1.4 100810 41
2010-11-29 09:04:39 51°24.447 2°44.373 3.7 43 1.4 100810 41
2010-11-29 09:04:45 51°24.453 2°44.355 3.5 40 1.4 100810 39
2010-11-29 09:04:49 51°24.457 2°44.343 2.9 41 1.4 100810 39
2010-11-29 09:04:54 51°24.461 2°44.328 1.7 45 1.4 100820 41
2010-11-29 09:04:59 51°24.465 2°44.312 2.1 49 1.4 100820 41
2010-11-29 09:05:05 51°24.468 2°44.294 2.1 44 1.4 100810 42
2010-11-29 09:05:09 51°24.47 2°44.282 3.8 51 1.4 100810 42
2010-11-29 09:05:14 51°24.472 2°44.266 1.6 24 1.4 100820 40
2010-11-29 09:05:19 51°24.474 2°44.251 1.3 50 1.4 100820 40
2010-11-29 09:05:25 51°24.476 2°44.232 0.3 26 1.4 100810 39
2010-11-29 09:05:29 51°24.477 2°44.22 0.1 47 1.4 100810 39
2010-11-29 09:05:34 51°24.478 2°44.205 0.1 21 1.4 100810 40
2010-11-29 09:05:39 51°24.48 2°44.19 0.1 52 1.4 100810 40